Namest Nad Oslav, Czech Republic

2:38 AM CET on December 13, 2019 (GMT +0100)
Namest

Weather History for LKNA - August, 2019

Change the Weather History Date:

Tuesday, August 27, 2019

  Actual Average Record
Temperature  
Mean Temperature 72 °F -  
Max Temperature 81 °F - - ()
Min Temperature 62 °F - - ()
Cooling Degree Days 6    
Growing Degree Days 22 (Base 50)    
Moisture  
Dew Point 63 °F    
Average Humidity 77    
Maximum Humidity 100    
Minimum Humidity 42    
Precipitation  
Precipitation 0.00 in - - ()
Sea Level Pressure  
Sea Level Pressure 30.11 in    
Wind  
Wind Speed 6 mph ()    
Max Wind Speed 14 mph    
Max Gust Speed 22 mph    
Visibility 7.5 miles    
Events      
T = Trace of Precipitation, MM = Missing Value Source: Averaged Metar Reports

Daily Weather History Graph

Daily Weather History Graph

Search for Another Location

Airport or City:

Astronomy

Aug. 27, 2019 Rise Set
Actual Time 6:03 AM CEST 7:49 PM CEST
Civil Twilight 5:30 AM CEST 8:22 PM CEST
Nautical Twilight 4:48 AM CEST 9:03 PM CEST
Astronomical Twilight 4:03 AM CEST 9:49 PM CEST
Moon 1:49 AM CEST (8/27) 6:13 PM CEST (8/27)
Length of Visible Light 14h 52m
Length of Day
13h 45m
Waning Crescent, 13% of the Moon is Illuminated
Aug 27
Waning Crescent
Aug 30
New
Sep 6
First Quarter
Sep 14
Full
Sep 22
Last Quarter

Hourly Weather History & Observations

Time (CEST) Temp. Heat Index Dew Point Humidity Pressure Visibility Wind Dir Wind Speed Gust Speed Precip Events Conditions
12:00 AM 64 °F - 62 °F 92% 30.12 in 9 mi East 4.5 mph - -   Scattered Clouds
12:00 AM 64.4 °F - 62.6 °F 94% 30.15 in - East 4.6 mph - N/A   Clear
1:00 AM 63 °F - 62 °F 96% 30.11 in 6 mi ENE 4.5 mph - -   Scattered Clouds
1:00 AM 62.6 °F - 62.6 °F 100% 30.15 in - ENE 3.5 mph - N/A   Clear
2:00 AM 63 °F - 62 °F 95% 30.11 in 6 mi NE 4.5 mph - -   Partly Cloudy
2:00 AM 62.6 °F - 62.6 °F 100% 30.12 in - NE 3.5 mph - N/A   Clear
3:00 AM 63 °F - 62 °F 96% 30.11 in 3 mi East 4.5 mph - -   Mist
4:00 AM 63 °F - 62 °F 96% 30.12 in 3 mi East 4.5 mph - -   Mist
4:00 AM 62.6 °F - 62.6 °F 100% 30.12 in 3.1 mi East 4.6 mph - N/A   Mist
5:00 AM 63 °F - 62 °F 96% 30.12 in 2 mi ENE 4.5 mph - -   Mist
5:00 AM 62.6 °F - 62.6 °F 100% 30.12 in 2.5 mi ENE 3.5 mph - N/A   Mist
6:00 AM 62 °F - 62 °F 99% 30.11 in 1 mi ENE 4.5 mph - -   Mist
6:00 AM 62.6 °F - 62.6 °F 100% 30.12 in 0.9 mi East 5.8 mph - N/A   Mist
7:00 AM 63 °F - 62 °F 96% 30.12 in 2 mi NE 4.5 mph - -   Mist
8:00 AM 64 °F - 62 °F 92% 30.12 in 5 mi ENE 4.5 mph - -   Mist
8:00 AM 62.6 °F - 62.6 °F 100% 30.15 in 5.0 mi NE 4.6 mph - N/A   Unknown
9:00 AM 68.0 °F - 66.2 °F 94% 30.15 in - East 6.9 mph - N/A   Clear
9:28 AM 68.0 °F - 64.4 °F 88% 30.15 in 6.2 mi East 9.2 mph - N/A   Scattered Clouds
10:00 AM 70 °F - 64 °F 75% 30.11 in 9 mi East 8.9 mph - -   Scattered Clouds
10:00 AM 71.6 °F - 64.4 °F 78% 30.15 in 6.2 mi East 8.1 mph - N/A   Scattered Clouds
11:00 AM 72 °F - 63 °F 67% 30.11 in 12 mi East 8.9 mph - -   Scattered Clouds
11:00 AM 71.6 °F - 64.4 °F 78% 30.15 in 6.2 mi ESE 10.4 mph - N/A   Scattered Clouds
12:00 PM 75 °F - 64 °F 60% 30.11 in 12 mi ESE 11.2 mph - -   Scattered Clouds
1:00 PM 77 °F - 65 °F 57% 30.09 in 12 mi ESE 11.2 mph - -   Partly Cloudy
1:00 PM 77.0 °F - 66.2 °F 69% 30.15 in 6.2 mi ESE 10.4 mph - N/A   Partly Cloudy
2:00 PM 78.8 °F - 64.4 °F 61% 30.15 in 6.2 mi East 12.7 mph - N/A   Scattered Clouds
3:00 PM 80 °F - 62 °F 45% 30.06 in 16 mi East 11.2 mph - -   Partly Cloudy
3:00 PM 80.6 °F 81.8 °F 62.6 °F 54% 30.12 in 6.2 mi ESE 12.7 mph - N/A   Scattered Clouds
4:00 PM 80 °F - 61 °F 42% 30.04 in 19 mi ESE 11.2 mph - -   Scattered Clouds
4:00 PM 80.6 °F 81.8 °F 62.6 °F 54% 30.12 in 6.2 mi ESE 13.8 mph - N/A   Partly Cloudy
5:00 PM 81 °F - 62 °F 43% 30.02 in 16 mi East 13.4 mph - -   Scattered Clouds
5:00 PM 80.6 °F 81.8 °F 62.6 °F 54% 30.09 in 6.2 mi ESE 10.4 mph 21.9 mph N/A   Partly Cloudy
6:00 PM 78.8 °F - 62.6 °F 57% 30.09 in 6.2 mi East 9.2 mph - N/A   Partly Cloudy
7:00 PM 78 °F - 62 °F 48% 30.03 in 16 mi East 8.9 mph - -   Scattered Clouds
7:00 PM 78.8 °F - 62.6 °F 57% 30.09 in 6.2 mi ESE 8.1 mph - N/A   Partly Cloudy
8:00 PM 77.0 °F - 62.6 °F 61% 30.12 in - ESE 9.2 mph - N/A   Clear
9:00 PM 72 °F - 62 °F 62% 30.08 in 12 mi SE 6.7 mph - -   Scattered Clouds
9:00 PM 73.4 °F - 62.6 °F 69% 30.12 in - SE 6.9 mph - N/A   Clear
10:00 PM 71 °F - 62 °F 66% 30.09 in 12 mi ESE 6.7 mph - -  
10:00 PM 71.6 °F - 62.6 °F 73% 30.12 in - ESE 6.9 mph - N/A   Clear
11:00 PM 71.6 °F - 64.4 °F 78% 30.12 in - ESE 8.1 mph - N/A   Clear